This demonstration page uses our WeatherBlox Daily Observations layout. Learn more.

38.89511, -77.03637

Hourly Observations for June 13, 2018

Temp ( °F °C ) Dew Point ( °F °C ) Humidity (%) Winds ( mph kmh ) Pressure ( in mb ) Visibility ( mi km ) Precip ( " mm )
12:17 am 00:17 Cloudy 68 20 62 16.7 81 81 SSW 8 13 30.09 1019 10 16.09344 0 0
12:52 am 00:52 Cloudy 68 20 63 17.2 84 84 S 6 9 30.06 1018 10 16.09344 0 0
1:52 am 01:52 Cloudy 68 20 64 17.8 87 87 S 7 11 30.06 1018 10 16.09344 0 0
2:47 am 02:47 Cloudy with Light Rain 68 20 64 18 88 88 SW 8 13 30.06 1018 5 8.04672 0.001 0.001
2:52 am 02:52 Cloudy with Light Rain 68 20 65 18.3 90 90 SW 10 17 30.03 1017 5 8.04672 0.001 0.001
3:26 am 03:26 Cloudy 68 20 65 18.3 90 90 SSW 7 11 30.03 1017 10 16.09344 0.001 0.001
3:52 am 03:52 Cloudy 68 20 64 17.8 87 87 SSW 8 13 30 1016 10 16.09344 0.001 0.001
4:25 am 04:25 Cloudy 68 20 64 17.8 87 87 SW 7 11 30.03 1017 10 16.09344 0 0
4:52 am 04:52 Cloudy 68 20 64 17.8 87 87 SSW 8 13 30 1016 10 16.09344 0 0
5:44 am 05:44 Cloudy 68 20 65 18.3 90 90 S 9 15 30 1016 10 16.09344 0 0
5:52 am 05:52 Cloudy 68 20 65 18.3 90 90 S 7 11 30 1016 10 16.09344 0 0
6:46 am 06:46 Cloudy 68 20 64 18 88 88 S 8 13 30 1016 10 16.09344 0 0
6:52 am 06:52 Cloudy 68 20 64 17.8 87 87 S 7 11 30 1016 10 16.09344 0 0
7:20 am 07:20 Cloudy 69 20.6 65 18.3 87 87 S 8 13 30 1016 10 16.09344 0 0
7:37 am 07:37 Partly Cloudy 69 20.6 65 18.3 87 87 S 9 15 30 1016 10 16.09344 0 0
7:52 am 07:52 Cloudy 70 21.1 65 18.3 84 84 S 8 13 29.97 1015 10 16.09344 0 0
8:52 am 08:52 Cloudy 73 22.8 66 18.9 79 79 S 10 17 29.97 1015 10 16.09344 0 0
9:31 am 09:31 Cloudy 73 22.8 66 18.9 79 79 SSW 14 22 30 1016 10 16.09344 0 0
9:52 am 09:52 Cloudy 74 23.3 65 18.3 74 74 SSW 13 20 29.97 1015 10 16.09344 0 0
10:52 am 10:52 Cloudy 77 25 67 19.4 71 71 SSW 12 19 29.94 1014 10 16.09344 0 0
10:55 am 10:55 Cloudy 77 25 66 18.9 69 69 S 10 17 29.97 1015 10 16.09344 0 0
11:52 am 11:52 Mostly Cloudy 78 25.6 68 20 71 71 S 8 13 29.94 1014 10 16.09344 0 0
12:52 pm 12:52 Cloudy 79 26.1 68 20 69 69 S 14 22 29.91 1013 10 16.09344 0 0
1:52 pm 13:52 Mostly Cloudy 83 28.3 70 21.1 65 65 S 12 19 29.91 1013 10 16.09344 0 0
2:52 pm 14:52 Mostly Cloudy 81 27.2 69 20.6 67 67 S 12 19 29.88 1012 10 16.09344 0 0
3:52 pm 15:52 Cloudy 83 28.3 70 21.1 65 65 SSW 10 17 29.88 1012 10 16.09344 0 0
4:52 pm 16:52 Cloudy 83 28.3 71 21.7 67 67 SSW 12 19 29.85 1011 10 16.09344 0 0
5:52 pm 17:52 Mostly Cloudy 84 28.9 71 21.7 65 65 SSW 15 24 29.83 1010 10 16.09344 0 0
6:52 pm 18:52 Mostly Cloudy 84 28.9 71 21.7 65 65 SSW 8 13 29.83 1010 10 16.09344 0 0
7:52 pm 19:52 Mostly Cloudy 83 28.3 71 21.7 67 67 SSW 12 19 29.83 1010 10 16.09344 0 0
8:52 pm 20:52 Mostly Cloudy 80 26.7 71 21.7 74 74 SSW 8 13 29.83 1010 10 16.09344 0 0
9:52 pm 21:52 Mostly Cloudy 77 25 71 21.7 82 82 S 10 17 29.83 1010 10 16.09344 0 0
10:52 pm 22:52 Mostly Cloudy 77 25 71 21.7 82 82 SSW 8 13 29.83 1010 10 16.09344 0 0
11:52 pm 23:52 Partly Cloudy 78 25.6 71 21.7 79 79 SW 7 11 29.83 1010 10 16.09344 0 0

Powered by AerisWeather